Location: B�rgermoos
(47.6500°N, 9.0667°E)
Time: 19:18:47
(UTC+00:00)

Vanguard 2 Rocket - Pass Details

Date: 09 August 2021
Orbit: 555 x 3324 km, 32.9° (Epoch: 16 September)

Event Time Altitude Azimuth Distance (km) Brightness Sun altitude
Rises 04:31:50 0° 229° (SW) 4,162 9.7 2.3°
Reaches altitude 10° 04:36:34 10° 207° (SSW) 2,667 8.9 3.1°
Maximum altitude 04:39:35 14° 177° (S) 2,093 8.6 3.5°
Drops below altitude 10° 04:42:07 10° 145° (SE) 2,147 9.1 3.9°
Sets 04:45:11 0° 118° (ESE) 2,850 10.2 4.4°
